Orbital Elements at Epoch 2455791.5 (2011-Aug-18.0) TDB
Reference: JPL 11 (heliocentric ecliptic J2000)
Element | Value | Uncertainty (1-sigma) | Units |
e | .3797273022751771 | 4.5881e-05 | |
a | 3.422250471846395 | 0.00021829 | au |
q | 2.122728532462212 | 6.7295e-05 | au |
i | 10.24005100770656 | 0.00045556 | deg |
node | 312.6706695170379 | 0.0010415 | deg |
peri | 3.341503759615148 | 0.0079435 | deg |
M | 9.74101651092603 | 0.0022527 | deg |
tp | 2455728.929749505833 (2011-Jun-16.42974951) | 0.018868 | TDB |
period | 2312.416794760032 6.33 | 0.22125 0.0006057 | d yr |
n | .155681277188336 | 1.4895e-05 | deg/d |
Q | 4.721772411230579 | 0.00030118 | au |
|
| | Orbit Determination Parameters
Additional Information
|